This demonstration page uses our WeatherBlox Daily Observations layout. Learn more.

Left ArrowRight Arrow

53.62937, 11.41316

Hourly Observations for March 10, 2021

Temp ( °F °C ) Dew Point ( °F °C ) Humidity (%) Winds ( mph kmh ) Pressure ( in mb ) Visibility ( mi km ) Precip ( " mm )
7:20 am 07:20 Mostly Sunny 30 -1 21 -6 69 69 SE 5 7 30.09 1019 7 11 N/A
7:50 am 07:50 Mostly Sunny 32 0 21 -6 64 64 SE 6 9 30.09 1019 7 11 N/A
8:20 am 08:20 Mostly Sunny 32 0 21 -6 64 64 SE 7 11 30.09 1019 7 11 N/A
8:50 am 08:50 Mostly Sunny 34 1 21 -6 60 60 SE 5 7 30.09 1019 7 11 N/A
9:20 am 09:20 Partly Cloudy 36 2 21 -6 56 56 VRB 3 6 30.09 1019 30 48 N/A
9:50 am 09:50 Partly Cloudy 37 3 19 -7 48 48 SE 5 7 30.09 1019 30 48 N/A
10:20 am 10:20 Mostly Sunny 37 3 19 -7 48 48 ESE 5 7 30.09 1019 30 48 N/A
10:50 am 10:50 Mostly Sunny 39 4 23 -5 52 52 SSE 6 9 30.06 1018 7 11 N/A
11:20 am 11:20 Mostly Sunny 39 4 25 -4 56 56 SE 6 9 30.06 1018 7 11 N/A
11:50 am 11:50 Mostly Sunny 41 5 25 -4 53 53 SSE 6 9 30.06 1018 7 11 N/A
12:20 pm 12:20 Mostly Sunny 43 6 27 -3 53 53 SE 8 13 30.06 1018 7 11 N/A
12:50 pm 12:50 Mostly Sunny 43 6 30 -1 61 61 S 8 13 30.03 1017 7 11 N/A
1:20 pm 13:20 Mostly Sunny 43 6 30 -1 61 61 S 9 15 30.03 1017 30 48 N/A
1:50 pm 13:50 Partly Cloudy 45 7 30 -1 57 57 SSE 12 19 30.03 1017 30 48 N/A
2:20 pm 14:20 Partly Cloudy 45 7 32 0 61 61 SSE 13 20 30.00 1016 30 48 N/A
2:50 pm 14:50 Partly Cloudy 45 7 30 -1 57 57 SSE 9 15 30.00 1016 30 48 N/A
3:20 pm 15:20 Partly Cloudy 45 7 30 -1 57 57 SE 12 19 29.97 1015 30 48 N/A
3:50 pm 15:50 Mostly Sunny 45 7 30 -1 57 57 SE 10 17 29.97 1015 30 48 N/A
4:20 pm 16:20 Mostly Sunny 45 7 30 -1 57 57 SE 10 17 29.97 1015 30 48 N/A
4:50 pm 16:50 Mostly Sunny 45 7 30 -1 57 57 SSE 12 19 29.97 1015 30 48 N/A
5:20 pm 17:20 Mostly Sunny 43 6 30 -1 61 61 SSE 12 19 29.95 1014 30 48 N/A
5:50 pm 17:50 Mostly Cloudy 43 6 30 -1 61 61 SE 9 15 29.95 1014 30 48 N/A
6:20 pm 18:20 Mostly Cloudy 43 6 28 -2 57 57 SSE 7 11 29.95 1014 30 48 N/A
6:50 pm 18:50 Mostly Cloudy 43 6 30 -1 61 61 SSE 8 13 29.95 1014 30 48 N/A
7:20 pm 19:20 Mostly Cloudy 43 6 30 -1 61 61 SE 8 13 29.92 1013 30 48 N/A
7:50 pm 19:50 Mostly Clear 43 6 30 -1 61 61 SE 8 13 29.92 1013 30 48 N/A

Powered by AerisWeather